This demonstration page uses our WeatherBlox Daily Observations layout. Learn more.

Left ArrowRight Arrow

34.16533, -84.80231

Hourly Observations for June 20, 2019

Temp ( °F °C ) Dew Point ( °F °C ) Humidity (%) Winds ( mph kmh ) Pressure ( in mb ) Visibility ( mi km ) Precip ( " mm )
12:53 am 00:53 Clear 75 23.9 70 21.1 84 84 Calm 29.78 1008 10 16 0.00 0.00
1:53 am 01:53 Clear 74 23.3 70 21.1 88 88 Calm 29.78 1009 10 16 0.00 0.00
2:53 am 02:53 Clear 71 21.7 69 20.6 94 94 Calm 29.77 1008 10 16 0.00 0.00
3:53 am 03:53 Clear 71 21.7 69 20.6 94 94 Calm 29.76 1008 10 16 0.00 0.00
4:53 am 04:53 Clear 75 23.9 71 21.7 88 88 VRB 6 9 29.76 1008 10 16 0.00 0.00
5:53 am 05:53 Mostly Cloudy 76 24.4 71 21.7 85 85 VRB 3 6 29.78 1009 10 16 0.00 0.00
6:15 am 06:15 Cloudy with Nearby Thunderstorms 76 24.4 71 21.7 85 85 Calm 29.81 1010 10 16 0.00 0.00
6:24 am 06:24 Cloudy with Rain 72 22.2 67 19.4 84 84 WSW 9 15 29.85 1011 3 4 0.05 1.27
6:30 am 06:30 Cloudy with Nearby Thunderstorms 71 21.7 67 19.4 87 87 VRB 7 11 29.84 1010 3 5 0.08 2.03
6:46 am 06:46 Mostly Cloudy 71 21.7 68 20 90 90 S 3 6 29.84 1010 10 16 0.09 2.29
6:53 am 06:53 Partly Cloudy 71 21.7 68 20 90 90 Calm 29.80 1009 10 16 0.09 2.29
7:53 am 07:53 Sunny 69 20.6 68 20 96 96 Calm 29.80 1009 9 14 0.00 0.00
8:53 am 08:53 Partly Cloudy 75 23.9 69 20.6 82 82 VRB 6 9 29.82 1010 10 16 0.00 0.00
9:53 am 09:53 Sunny 78 25.6 68 20 71 71 Calm 29.82 1010 10 16 0.00 0.00
10:53 am 10:53 Mostly Sunny 79 26.1 68 20 69 69 Calm 29.83 1010 10 16 0.00 0.00
11:53 am 11:53 Partly Cloudy 78 25.6 67 19.4 69 69 VRB 5 7 29.82 1010 10 16 0.00 0.00
12:53 pm 12:53 Mostly Cloudy 78 25.6 69 20.6 74 74 Calm 29.85 1011 10 16 0.00 0.03
1:53 pm 13:53 Partly Cloudy 82 27.8 70 21.1 67 67 Calm 29.83 1010 10 16 0.00 0.03
2:53 pm 14:53 Partly Cloudy with Light Rain 86 30 68 20 55 55 VRB 5 7 29.81 1010 10 16 0.00 0.03
3:53 pm 15:53 Partly Cloudy with Light Rain 86 30 66 18.9 51 51 VRB 6 9 29.80 1009 10 16 0.00 0.03
4:53 pm 16:53 Partly Cloudy with Light Rain 86 30 65 18.3 49 49 VRB 6 9 29.80 1009 10 16 0.00 0.03
5:53 pm 17:53 Partly Cloudy with Light Rain 85 29.4 65 18.3 51 51 VRB 7 11 29.80 1009 10 16 0.00 0.03
6:53 pm 18:53 Mostly Sunny 85 29.4 66 18.9 53 53 undefined N/A 29.80 1009 10 16 0.00 0.03
7:53 pm 19:53 Partly Cloudy 83 28.3 65 18.3 55 55 VRB 3 6 29.80 1009 10 16 0.00 0.03
8:53 pm 20:53 Sunny 80 26.7 66 18.9 62 62 Calm 29.81 1009 10 16 0.00 0.00
9:53 pm 21:53 Clear 77 25 66 18.9 69 69 Calm 29.84 1011 10 16 0.00 0.00
10:53 pm 22:53 Clear 73 22.8 67 19.4 81 81 Calm 29.89 1012 10 16 0.00 0.00
11:53 pm 23:53 Clear 73 22.8 67 19.4 81 81 Calm 29.91 1013 10 16 0.00 0.00

Powered by AerisWeather